2026-027E

Last updated on Sun Mar 15 2026 00:02:06 GMT+0000 (Coordinated Universal Time)

1 67750U 26027E 26073.57405647 .00013007 00000+0 63758-3 0 9990 2 67750 97.4914 202.5601 0009877 188.2289 171.8784 15.18223003 4607
UTC large
Height (km)
Speed (km/s)
/
Latitude / Longitude
Inclination (degrees)
Orbital Period (minutes)
Azimuth
Elevation
Range (km)
Doppler Factor

Next 0 passes for location: London (51.5072 / 0.1276)

Sorry there are no passes over London.